GALILEO203 [COD] 1 40544C 15017A 22227.99979167 .00000000 00000+0 00000+0 0 2275 2 40544 56.8145 19.7435 0002291 211.1751 232.2741 1.70476281 17 GALILEO203 [ESA] 1 40544C 15017A 22229.99979167 .00000000 00000+0 00000+0 0 2299 2 40544 56.8151 19.6893 0002363 212.6923 18.2045 1.70476438 11 GALILEO203 [GAL] 1 40544C 15017A 22230.01020833 .00000000 00000+0 00000+0 0 2303 2 40544 56.8151 19.6890 0002363 212.7040 24.5857 1.70476439 11 GALILEO204 [ESA] 1 40545C 15017B 22229.99979167 .00000000 00000+0 00000+0 0 2290 2 40545 56.8211 19.7019 0002866 191.9762 243.7538 1.70476003 18 GALILEO204 [GAL] 1 40545C 15017B 22230.01020833 .00000000 00000+0 00000+0 0 2304 2 40545 56.8211 19.7016 0002866 191.9710 250.1519 1.70476007 13